Voltar ao catálogo

ONEWEB-0035

AtivoComunicaçõesPO
NORAD 45143·PAYLOAD·🇬🇧 United Kingdom

Lançado Feb 6, 2020 de Baikonur Cosmodrome

Loading…

Próximas Passagens (próximas 24 horas)

TLE

AtualizadoSource: CelesTrak SupGP

Época: Sep 14, 2026, 23:15 UTC

1 45143C 20008N   26257.96927500 -.00001145  00000+0 -32836-2 0  2570
2 45143  87.8905  18.3925 0001743  98.9526  12.5722 13.10374620    15

Acompanhe ONEWEB-0035 em tempo real com AllMySat

Download on the App Store